When you browse on this site, cookies collect data to enhance your experience and personalize the content and advertising you see.
Visit our Privacy Policy to learn more. By continuing to use the site, you agree to this use of cookies and data.
  • In France
  • List of Countries
  • For 7 days
  • Water Temperature
  • Weather Map
  • Weather Widgets
  • user-avatar
    Login

    Hourly Weather Smolan

    Today, 21 February, Friday

    Time Temperature Precipitation Wind Pressure Humidity
    00:00 -3°C° 0.5 mm 2 mps 653 mmHg 93%
    01:00 -3°C° 0.5 mm 2 mps 653 mmHg 92%
    02:00 -3°C° 0.5 mm 2 mps 653 mmHg 92%
    03:00 -3°C° 0.1 mm 2 mps 653 mmHg 92%
    04:00 -4°C° 0.1 mm 2 mps 653 mmHg 91%
    05:00 -4°C° 0.1 mm 2 mps 653 mmHg 91%
    06:00 -4°C° 0 mm 2 mps 654 mmHg 90%
    07:00 -4°C° 0 mm 2 mps 654 mmHg 89%
    08:00 -4°C° 0 mm 2 mps 654 mmHg 88%
    15:00 +3°C° 0 mm 1 mps 656 mmHg 68%
    16:00 +3°C° 0 mm 1 mps 656 mmHg 71%
    17:00 +2°C° 0 mm 1 mps 655 mmHg 75%
    18:00 +1°C° 0 mm 1 mps 655 mmHg 79%
    19:00 0°C° 0 mm 1 mps 655 mmHg 84%
    20:00 -1°C° 0 mm 1 mps 655 mmHg 89%
    21:00 -2°C° 0 mm 1 mps 655 mmHg 88%
    22:00 -2°C° 0 mm 1 mps 655 mmHg 88%
    23:00 -2°C° 0 mm 1 mps 655 mmHg 88%

    Tomorrow, 22 February, Saturday

    Time Temperature Precipitation Wind Pressure Humidity
    00:00 -2°C° 0 mm 1 mps 655 mmHg 86%
    01:00 -2°C° 0 mm 1 mps 655 mmHg 85%
    02:00 -2°C° 0 mm 1 mps 656 mmHg 83%
    03:00 -2°C° 0.1 mm 1 mps 655 mmHg 82%
    04:00 -2°C° 0.1 mm 1 mps 655 mmHg 82%
    05:00 -2°C° 0.1 mm 1 mps 655 mmHg 81%
    06:00 -2°C° 0 mm 1 mps 655 mmHg 80%
    07:00 -2°C° 0 mm 1 mps 656 mmHg 79%
    08:00 -5°C° 0 mm 2 mps 656 mmHg 79%
    09:00 -3°C° 0 mm 2 mps 657 mmHg 73%
    10:00 -2°C° 0 mm 2 mps 657 mmHg 67%
    11:00 -1°C° 0 mm 2 mps 658 mmHg 61%
    12:00 0°C° 0 mm 3 mps 659 mmHg 61%
    13:00 0°C° 0 mm 3 mps 659 mmHg 60%
    14:00 +1°C° 0 mm 3 mps 659 mmHg 60%
    15:00 0°C° 0 mm 3 mps 659 mmHg 63%
    16:00 0°C° 0 mm 3 mps 659 mmHg 67%
    17:00 -1°C° 0 mm 3 mps 659 mmHg 71%
    18:00 -2°C° 0 mm 2 mps 659 mmHg 77%
    19:00 -3°C° 0 mm 2 mps 659 mmHg 83%
    20:00 -2°C° 0 mm 1 mps 659 mmHg 89%
    21:00 -3°C° 0 mm 1 mps 659 mmHg 88%
    22:00 -3°C° 0 mm 1 mps 659 mmHg 87%
    23:00 -3°C° 0 mm 1 mps 659 mmHg 87%

    Day after tomorrow, 23 February, Sunday

    Time Temperature Precipitation Wind Pressure Humidity
    00:00 -3°C° 0 mm 1 mps 659 mmHg 84%
    01:00 -3°C° 0 mm 1 mps 659 mmHg 82%
    02:00 -3°C° 0 mm 1 mps 658 mmHg 79%
    03:00 -3°C° 0 mm 1 mps 658 mmHg 75%
    04:00 -3°C° 0 mm 1 mps 658 mmHg 71%
    05:00 -3°C° 0 mm 1 mps 658 mmHg 67%
    06:00 -2°C° 0 mm 1 mps 658 mmHg 63%
    07:00 -2°C° 0 mm 1 mps 658 mmHg 59%
    08:00 -1°C° 0 mm 1 mps 658 mmHg 55%
    09:00 +1°C° 0 mm 1 mps 659 mmHg 52%
    10:00 +4°C° 0 mm 1 mps 659 mmHg 48%
    11:00 +6°C° 0 mm 1 mps 660 mmHg 44%
    12:00 +7°C° 0 mm 1 mps 659 mmHg 45%
    13:00 +7°C° 0 mm 2 mps 659 mmHg 47%
    14:00 +8°C° 0 mm 2 mps 659 mmHg 48%
    15:00 +7°C° 0 mm 2 mps 658 mmHg 55%
    16:00 +7°C° 0 mm 1 mps 657 mmHg 62%
    17:00 +6°C° 0 mm 1 mps 657 mmHg 69%
    18:00 +4°C° 0 mm 1 mps 656 mmHg 70%
    19:00 +3°C° 0 mm 1 mps 656 mmHg 72%
    20:00 +1°C° 0 mm 2 mps 656 mmHg 74%
    21:00 +1°C° 0 mm 2 mps 656 mmHg 71%
    22:00 +1°C° 0 mm 2 mps 655 mmHg 68%
    23:00 +2°C° 0 mm 1 mps 655 mmHg 64%

    24 February, Monday

    Time Temperature Precipitation Wind Pressure Humidity
    00:00 +3°C° 0 mm 1 mps 655 mmHg 64%
    01:00 +3°C° 0 mm 1 mps 654 mmHg 63%
    02:00 +3°C° 0 mm 1 mps 654 mmHg 62%
    03:00 +3°C° 0 mm 1 mps 653 mmHg 61%
    04:00 +3°C° 0 mm 1 mps 653 mmHg 60%
    05:00 +2°C° 0 mm 2 mps 652 mmHg 59%
    06:00 +2°C° 0 mm 2 mps 652 mmHg 58%
    07:00 +3°C° 0 mm 2 mps 652 mmHg 57%
    08:00 +3°C° 0 mm 2 mps 652 mmHg 57%
    09:00 +5°C° 0 mm 2 mps 653 mmHg 54%
    10:00 +8°C° 0 mm 2 mps 654 mmHg 51%
    11:00 +10°C° 0 mm 2 mps 654 mmHg 48%
    12:00 +10°C° 0 mm 2 mps 654 mmHg 51%
    13:00 +9°C° 0 mm 3 mps 654 mmHg 54%
    14:00 +8°C° 0 mm 4 mps 654 mmHg 57%
    15:00 +6°C° 0 mm 4 mps 654 mmHg 59%
    16:00 +5°C° 0 mm 5 mps 654 mmHg 60%
    17:00 +2°C° 0 mm 5 mps 654 mmHg 62%
    18:00 0°C° 0 mm 4 mps 655 mmHg 65%
    19:00 -1°C° 0 mm 4 mps 655 mmHg 67%
    20:00 -2°C° 0 mm 3 mps 656 mmHg 70%
    21:00 -4°C° 0 mm 3 mps 656 mmHg 71%
    22:00 -3°C° 0 mm 2 mps 657 mmHg 71%
    23:00 -4°C° 0 mm 2 mps 657 mmHg 72%

    25 February, Tuesday

    Time Temperature Precipitation Wind Pressure Humidity
    00:00 -4°C° 0 mm 2 mps 657 mmHg 69%
    01:00 -4°C° 0 mm 2 mps 657 mmHg 67%
    02:00 -4°C° 0 mm 2 mps 657 mmHg 64%
    03:00 -4°C° 0 mm 2 mps 657 mmHg 59%
    04:00 -2°C° 0 mm 1 mps 657 mmHg 55%
    05:00 -2°C° 0 mm 1 mps 657 mmHg 50%
    06:00 -2°C° 0 mm 1 mps 657 mmHg 46%
    07:00 -1°C° 0 mm 1 mps 658 mmHg 43%
    08:00 -1°C° 0 mm 0 mps 658 mmHg 39%
    09:00 +1°C° 0 mm 1 mps 658 mmHg 38%
    10:00 +3°C° 0 mm 1 mps 659 mmHg 37%
    11:00 +4°C° 0 mm 2 mps 659 mmHg 36%
    12:00 +5°C° 0 mm 2 mps 659 mmHg 39%
    13:00 +5°C° 0 mm 2 mps 659 mmHg 42%
    14:00 +6°C° 0 mm 2 mps 659 mmHg 45%
    15:00 +5°C° 0 mm 2 mps 658 mmHg 51%
    16:00 +4°C° 0 mm 2 mps 657 mmHg 56%
    17:00 +3°C° 0 mm 2 mps 657 mmHg 62%
    18:00 +2°C° 0 mm 2 mps 656 mmHg 69%
    19:00 -1°C° 0 mm 2 mps 655 mmHg 75%
    20:00 0°C° 0 mm 1 mps 655 mmHg 82%
    21:00 0°C° 0 mm 1 mps 655 mmHg 84%
    22:00 -3°C° 0 mm 2 mps 654 mmHg 85%
    23:00 -3°C° 0 mm 2 mps 654 mmHg 87%

    26 February, Wednesday

    Time Temperature Precipitation Wind Pressure Humidity
    00:00 -3°C° 0 mm 2 mps 653 mmHg 86%
    01:00 -3°C° 0 mm 2 mps 653 mmHg 85%
    02:00 -1°C° 0 mm 1 mps 652 mmHg 84%
    03:00 -1°C° 0 mm 1 mps 652 mmHg 83%
    04:00 -1°C° 0 mm 1 mps 651 mmHg 82%
    05:00 -1°C° 0 mm 1 mps 651 mmHg 81%
    06:00 0°C° 0 mm 1 mps 651 mmHg 80%
    07:00 0°C° 0 mm 1 mps 651 mmHg 79%
    08:00 +1°C° 0 mm 1 mps 651 mmHg 77%
    09:00 +3°C° 0 mm 1 mps 651 mmHg 72%
    10:00 +5°C° 0 mm 1 mps 652 mmHg 67%
    11:00 +6°C° 0 mm 2 mps 652 mmHg 62%
    12:00 +6°C° 0 mm 2 mps 651 mmHg 62%
    13:00 +7°C° 0 mm 2 mps 651 mmHg 62%
    14:00 +8°C° 0 mm 3 mps 651 mmHg 62%
    15:00 +7°C° 0 mm 2 mps 650 mmHg 67%
    16:00 +6°C° 0 mm 2 mps 649 mmHg 72%
    17:00 +5°C° 0 mm 2 mps 648 mmHg 77%
    18:00 +4°C° 0 mm 2 mps 648 mmHg 82%
    19:00 +2°C° 0 mm 2 mps 648 mmHg 87%
    20:00 +1°C° 0 mm 2 mps 647 mmHg 92%
    21:00 +1°C° 0 mm 2 mps 648 mmHg 92%
    22:00 +1°C° 0 mm 2 mps 648 mmHg 92%
    23:00 +1°C° 0 mm 2 mps 648 mmHg 92%
    Show more